SCP
0 0 0 0 0 0 0 0 0 0 0 0 0 0 0 0 0 0 0 0 0 0 0 0 0 0 0 0 0 0 0 0 0 0 0 0 0 0 0 0 0 0 0 0
0 0 0 0 0 0 0 0 -0 0 0 0 0 0 0 0 0 0 0 0 0 0 0 0 0 0 0 0 0 0 0 0 0 0 0 0 0 0 0 0 0 0 0 0
0 0 0 0 0 0 -0 0 0 0 0 0 0 0 0 0 0 0 0 0 0 0 0 0 0 0 0 0 0 0 0 0 0 0 0 0 0 0 0 0 0 0 0 0
0 0 0 0 0 0 -0 -0 0 0 0 0 0 0 0 0 0 0 0 0 0 0 0 0 0 0 0 0 0 0 0 0 0 0 0 0 0 0 0 0 0 0 0 0
0 0 0 0 0 0 0 0 0 0 0 0 0 0 0 0 0 0 0 0 0 0 0 0 0 0 0 0 0 0 0 0 0 0 0 0 0 0 0 0 0 0 0 0
0 0 0 -0 0 0 0 0 0 0 0 0 0 0 0 0 0 0 0 0 0 0 0 0 0 0 0 0 0 0 0 0 0 0 0 0 0 0 0 0 0 0 0 0
0 0 0 0 0 0 0 0 0 0 0 0 0 0 0 0 0 0 0 0 0 0 0 0 0 0 0 0 0 0 0 0 0 0 0 0 0 0 0 0 0 0 0 0
0 0 0 0 0 0 0 0 0 0 0 0 0 0 0 0 0 0 0 0 0 0 0 0 0 0 0 0 0 0 0 0 0 0 0 0 0 0 0 0 0 0 0 0
0 0 0 0 -0 0 0 0 0 0 0 0 0 0 0 0 0 0 0 0 0 0 0 0 0 0 0 0 0 0 0 0 0 0 0 0 0 0 0 0 0 0 0 0
0 0 0 0 0 0 0 0 0 0 0 0 0 0 0 0 0 0 0 0 0 0 0 0 0 0 0 0 0 0 0 0 0 0 0 0 0 0 0 0 0 0 0 0
0 0 0 0 0 0 0 0 0 0 0 0 0 0 0 0 0 0 0 0 0 0 0 0 0 0 0 0 0 0 0 0 0 0 0 0 0 0 0 0 0 0 0 0
0 -0 0 0 0 -0 0 0 0 -0 0 0 0 0 0 0 0 0 0 0 0 0 0 0 0 0 0 0 0 0 0 0 0 0 0 0 0 0 0 0 0 0 0 0
0 0 -0 -0 0 0 -0 0 0 0 0 0 0 0 0 0 0 0 0 0 0 0 0 0 0 0 0 0 0 0 0 0 0 0 0 0 0 0 0 0 0 0 0 0
-0 -0 -0 0 0 0 0 0 0 0 0 0 0 0 0 0 0 0 0 0 0 0 0 0 0 0 0 0 0 0 0 0 0 0 0 0 0 0 0 0 0 0 0 0
0 0 -0 -0 -0 0 0 0 0 0 0 0 0 0 0 0 0 0 0 0 0 0 0 0 0 0 0 0 0 0 0 0 0 0 0 0 0 0 0 0 0 0 0 0
-0 -0 -0 -0 -0 0 0 0 0 0 0 0 0 0 0 0 0 0 0 0 0 0 0 0 0 0 0 0 0 0 0 0 0 0 0 0 0 0 0 0 0 0 0 0
-0 -0 -0 -0 0 0 0 0 0 0 0 0 0 0 0 0 0 0 0 0 0 0 0 0 0 0 0 0 0 0 0 0 0 0 0 0 0 0 0 0 0 0 0 0
0 0 -0 -0 0 0 0 0 0 0 0 0 0 0 0 0 0 0 0 0 0 0 0 0 0 0 0 -0 -0 0 0 0 0 0 0 0 0 0 0 0 0 0 0 0
0 -0 -0 -0 0 0 0 0 0 0 0 0 0 0 0 0 0 0 0 0 0 0 0 0 0 0 0 0 0 0 0 0 0 0 0 0 0 0 0 0 0 0 0 0
0 0 -0 -0 -0 0 0 0 0 0 0 0 0 0 0 0 0 0 0 0 0 0 0 0 0 0 0 0 0 0 0 0 0 0 0 0 0 0 0 0 0 0 0 0
0 0 -0 -0 -0 0 0 0 0 0 0 0 0 0 0 0 0 0 0 0 0 0 0 0 0 0 0 0 0 0 0 0 0 0 0 0 0 0 0 0 0 0 0 0
0 0 -0 -0 -0 0 0 0 0 0 0 0 0 0 0 0 0 0 0 0 0 0 0 0 0 0 0 0 0 0 0 0 0 0 0 0 0 0 0 0 0 0 0 0
0 0 0 0 0 0 0 0 0 0 0 0 0 0 0 0 0 0 0 0 0 0 0 0 0 0 0 0 0 0 0 0 0 0 0 0 0 0 0 0 0 0 0 0
0 0 0 0 0 0 0 0 0 0 0 0 0 0 0 0 0 0 0 0 0 0 0 0 0 0 0 0 0 0 0 0 0 0 0 0 0 0 0 0 0 0 0 0
0 0 0 0 0 0 0 0 0 0 0 0 0 0 0 0 0 0 0 0 0 0 0 0 0 0 0 0 0 0 0 0 0 0 0 0 0 0 0 0 0 0 0 0
0 0 0 0 0 0 0 0 0 0 0 0 0 0 0 0 0 0 0 0 0 0 0 0 0 0 0 0 0 0 0 0 0 0 0 0 0 0 0 0 0 0 0 0
0 0 0 0 0 0 0 0 0 0 0 0 0 0 0 0 0 0 0 0 0 0 0 0 0 0 0 0 0 0 0 0 0 0 0 0 0 0 0 0 0 0 0 0
Wind_Speed_500mb
12 15 19 18 19 19 16 8 16 16 21 14 14 21 41 45 39 39 36 35 31 29 29 33 33 38 35 41 46 51 47 51 53 52 51 51 50 50 50 51 54 56 58 60
6 13 21 19 15 26 20 24 30 29 21 23 42 49 47 39 34 31 27 26 24 23 28 31 31 34 33 45 42 43 48 52 47 48 51 55 57 54 49 43 45 50 50 55
4 17 18 12 10 21 22 17 17 14 10 35 29 37 36 33 30 27 24 23 21 26 25 25 34 26 35 41 32 37 46 44 46 47 48 50 50 54 55 47 38 45 46 48
7 10 7 6 12 25 24 21 19 18 17 40 43 41 34 25 26 25 20 17 23 22 22 29 28 22 33 38 33 34 36 38 41 42 44 53 58 51 48 47 47 52 50 50
8 6 11 13 5 8 15 10 14 18 24 50 52 45 34 23 24 22 20 17 17 25 28 24 18 23 34 34 31 32 28 34 43 47 44 49 47 50 43 46 51 52 58 53
4 7 8 5 13 28 33 6 22 33 23 15 38 4 8 20 25 18 14 17 20 20 20 20 13 23 29 31 28 25 22 31 38 42 44 49 52 48 50 47 37 38 56 47
6 7 8 9 16 7 5 12 34 29 24 26 12 20 31 26 22 18 17 15 12 19 22 18 18 26 27 27 27 22 23 30 37 39 38 43 40 43 42 47 50 47 49 52
6 10 6 15 11 1 22 41 38 29 36 46 39 36 31 27 24 20 14 12 11 15 19 14 15 25 24 25 22 21 23 27 33 33 35 38 46 41 42 44 49 54 57 57
3 8 13 38 49 45 41 43 38 34 34 37 40 35 33 29 24 18 13 12 7 13 12 12 15 20 26 25 17 20 20 20 26 29 30 29 38 40 35 38 36 48 51 55
10 10 27 43 45 41 38 37 34 30 31 36 39 36 32 26 21 15 13 10 9 12 10 2 9 18 25 27 15 19 19 19 19 22 23 27 37 37 33 41 45 42 42 44
13 26 38 36 36 39 37 34 33 31 32 36 40 36 31 27 20 17 16 7 7 7 9 5 7 19 21 26 13 8 11 17 13 16 21 26 29 29 26 30 39 36 40 40
9 52 19 45 39 36 38 35 33 37 35 35 39 34 27 24 19 16 11 5 7 4 12 7 5 14 18 26 16 12 10 13 9 13 16 17 26 23 21 20 31 24 33 36
21 56 49 51 41 36 36 35 33 31 33 35 33 31 28 20 16 14 7 4 7 11 12 10 12 20 17 16 13 16 19 14 12 12 9 18 24 25 24 21 19 28 35 34
61 70 53 49 46 36 34 35 32 30 33 31 39 29 22 17 12 11 5 4 8 7 11 7 14 14 15 9 10 12 12 12 13 15 16 17 20 24 21 22 22 21 25 26
54 45 55 50 44 40 37 36 34 32 32 33 24 30 22 15 12 12 6 9 5 10 9 8 13 15 8 9 12 12 15 13 10 13 13 17 19 22 25 26 25 21 23 30
48 51 51 46 41 35 38 34 33 31 26 30 24 23 18 13 10 6 5 5 1 3 6 7 8 12 9 3 7 6 13 23 17 14 17 16 19 25 28 27 25 25 24 31
60 51 46 43 41 38 36 31 34 29 25 22 26 19 19 14 18 6 2 2 10 12 16 18 21 13 12 15 4 10 19 6 11 13 14 16 16 18 20 23 30 32 32 37
41 43 42 40 40 36 32 29 30 29 29 26 27 21 18 16 12 3 3 1 9 14 25 25 23 11 4 15 11 8 8 8 8 8 12 15 14 16 13 14 20 25 31 32
39 41 37 35 34 33 32 31 31 29 31 28 19 22 18 14 11 10 12 11 5 14 19 20 18 28 6 13 7 11 10 11 13 13 14 16 19 20 23 22 23 26 28 31
43 38 37 35 32 33 32 31 33 25 22 26 24 22 17 17 14 12 5 9 7 15 12 13 15 14 13 5 1 5 12 16 12 14 15 23 21 21 24 29 29 30 30 26
46 42 38 35 30 29 30 30 36 31 25 22 21 20 17 15 13 9 7 8 9 16 5 11 10 26 20 11 4 16 6 6 19 19 20 25 15 18 23 27 26 21 18 18
39 38 37 38 37 36 37 38 33 35 27 22 23 18 19 15 12 7 4 3 1 6 7 7 13 28 12 6 6 2 3 19 16 19 17 13 13 20 23 24 20 20 18 19
35 38 35 32 32 28 27 36 35 27 28 23 22 19 17 15 12 7 13 5 7 11 17 13 17 21 2 3 9 16 20 24 6 8 12 18 32 34 21 20 20 19 25 16
36 29 28 28 23 19 26 24 26 24 24 27 23 22 21 18 12 6 2 5 3 14 15 10 22 17 8 17 25 25 16 5 8 14 25 38 32 26 21 16 20 20 21 14
35 35 29 25 20 23 25 22 25 22 24 25 23 23 17 14 8 9 9 6 8 15 13 13 16 18 5 20 16 21 22 21 25 30 33 37 38 30 21 19 20 21 20 15
40 31 21 16 18 24 25 24 22 22 19 23 26 25 16 16 15 6 7 10 12 6 9 10 11 14 8 24 15 14 21 25 27 29 33 40 37 26 18 19 21 22 20 19
30 24 28 24 17 22 26 25 23 22 23 24 24 16 11 13 11 12 11 11 8 2 7 7 8 8 7 16 12 14 18 20 26 32 36 40 44 28 14 17 21 21 19 11
Wind_Direction_500mb
300 90 78 78 79 68 60 45 107 110 96 101 90 82 79 75 65 53 48 52 53 45 46 36 41 45 36 26 23 18 41 45 39 35 30 34 30 29 30 35 35 40 40 42
74 82 92 87 79 85 61 53 98 104 95 114 89 82 73 71 66 63 61 57 51 56 43 38 51 49 30 24 22 37 50 48 38 38 39 37 35 31 29 33 37 39 41 40
189 114 107 66 66 99 86 64 103 94 121 88 80 80 80 78 78 81 75 55 63 58 48 58 52 41 31 23 36 44 49 42 32 32 35 28 24 26 31 35 37 36 39 37
220 109 145 163 81 106 100 77 90 88 85 110 107 94 87 83 95 99 82 70 60 55 66 62 50 34 21 30 42 43 47 44 30 34 39 39 31 29 39 42 44 45 44 49
127 108 120 121 123 129 122 74 68 96 89 125 117 96 76 87 101 106 94 75 64 48 70 52 48 16 12 40 36 42 35 39 42 37 33 30 33 38 45 48 49 57 52 52
355 143 161 128 101 119 111 107 89 99 91 88 172 91 129 110 112 109 94 97 101 62 50 39 36 9 25 39 30 34 58 55 38 37 40 39 37 42 40 42 49 45 54 56
268 101 54 111 112 161 180 192 110 106 100 102 89 122 130 134 117 102 88 96 81 67 61 52 6 360 44 36 37 41 56 66 47 38 37 35 32 34 49 47 47 61 57 50
305 97 144 350 77 228 138 123 119 108 122 116 120 126 128 126 121 115 105 119 97 58 59 39 0 15 39 40 33 52 73 58 48 43 41 38 36 49 57 56 54 54 57 52
39 145 87 85 109 122 127 116 123 118 124 126 130 129 133 126 123 113 105 117 78 53 41 16 10 24 20 32 34 71 69 52 55 46 44 42 37 45 48 47 50 52 47 43
95 111 103 102 108 117 123 120 123 128 130 135 134 136 133 129 127 118 120 105 68 63 42 96 351 18 22 19 38 83 64 54 49 40 36 51 27 38 46 47 48 50 47 44
88 127 124 120 123 123 122 124 128 131 131 136 136 136 133 133 126 129 117 104 38 45 24 36 343 8 30 5 25 67 59 56 59 34 50 27 14 22 29 45 41 46 48 39
199 165 152 145 141 139 135 132 132 132 130 137 142 137 139 140 141 139 127 89 36 6 0 22 336 10 19 14 64 64 25 37 48 18 35 24 359 9 6 9 39 43 34 27
150 163 146 142 144 145 140 144 141 138 138 149 150 140 141 143 129 145 145 62 29 40 16 4 345 354 25 30 49 54 31 32 42 13 11 3 18 18 21 35 54 36 36 28
142 138 130 145 137 142 144 146 143 144 148 134 143 139 144 141 144 141 123 25 23 10 340 346 350 4 4 12 70 19 28 40 40 31 27 19 21 14 9 7 25 29 28 19
135 148 143 144 141 145 149 144 141 140 147 161 161 156 151 145 158 156 79 25 40 24 10 335 328 353 16 72 64 29 36 40 52 35 15 18 16 353 9 16 23 13 15 19
139 139 145 147 146 148 150 152 150 149 154 166 168 158 151 164 157 150 104 77 97 305 284 302 320 340 354 17 102 20 24 45 46 30 28 19 3 3 15 20 21 11 2 360
139 142 148 148 151 156 162 166 162 155 160 165 181 167 152 169 149 165 354 293 315 333 339 320 292 300 315 158 153 332 264 17 38 15 360 0 1 19 10 359 357 352 0 1
160 160 162 159 157 160 163 168 161 161 163 147 145 151 164 166 189 156 116 284 345 347 345 8 39 27 270 174 154 358 185 257 7 348 342 339 343 352 354 10 2 5 357 354
160 159 161 160 160 164 167 168 159 168 180 184 167 165 163 177 162 149 156 145 72 330 336 351 29 34 46 141 97 71 149 313 327 328 322 330 325 328 326 327 333 337 342 348
152 155 157 155 163 170 167 172 164 163 143 157 171 161 173 173 182 181 220 298 311 3 46 43 24 25 50 166 273 7 316 299 346 341 330 316 316 323 326 325 327 331 328 338
151 154 155 154 158 171 176 173 173 165 167 179 188 173 179 188 193 218 248 312 352 0 357 350 351 350 301 285 249 45 36 324 325 312 334 352 341 331 335 341 333 336 338 343
157 159 158 162 167 169 175 175 179 179 172 169 172 175 180 195 205 208 187 320 329 10 346 323 331 336 343 146 182 23 350 303 335 306 315 341 323 319 322 334 341 344 343 344
164 165 169 173 183 186 189 188 183 176 179 168 174 186 181 200 211 218 203 237 266 313 313 327 346 353 119 93 345 333 304 262 328 248 293 318 322 326 333 336 337 341 345 338
167 173 166 174 181 173 159 158 167 171 170 171 182 180 185 192 191 189 223 11 321 355 339 360 9 12 91 17 19 23 17 54 241 292 313 325 327 327 333 328 314 326 336 330
166 173 179 179 173 154 159 162 165 172 177 181 186 185 180 165 209 180 163 319 336 350 4 13 17 28 17 12 341 350 347 336 327 329 331 332 331 322 314 318 318 329 335 328
176 183 184 173 172 170 162 162 159 165 168 174 180 180 190 199 188 216 273 291 323 345 357 11 354 359 12 351 349 8 338 334 329 329 331 334 335 325 321 318 312 317 326 322
172 168 162 175 188 170 162 165 165 163 164 164 166 179 192 178 201 237 244 288 318 285 316 331 342 27 17 5 1 336 328 325 318 316 322 335 341 336 341 321 315 326 329 318
Wind_Speed_850mb
12 15 19 18 19 19 16 8 16 16 21 14 14 21 41 45 39 39 36 35 31 29 29 33 33 38 35 41 46 51 47 51 53 52 51 51 50 50 50 51 54 56 58 60
6 13 21 19 15 26 20 24 30 29 21 23 42 49 47 39 34 31 27 26 24 23 28 31 31 34 33 45 42 43 48 52 47 48 51 55 57 54 49 43 45 50 50 55
4 17 18 12 10 21 22 17 17 14 10 35 29 37 36 33 30 27 24 23 21 26 25 25 34 26 35 41 32 37 46 44 46 47 48 50 50 54 55 47 38 45 46 48
7 10 7 6 12 25 24 21 19 18 17 40 43 41 34 25 26 25 20 17 23 22 22 29 28 22 33 38 33 34 36 38 41 42 44 53 58 51 48 47 47 52 50 50
8 6 11 13 5 8 15 10 14 18 24 50 52 45 34 23 24 22 20 17 17 25 28 24 18 23 34 34 31 32 28 34 43 47 44 49 47 50 43 46 51 52 58 53
4 7 8 5 13 28 33 6 22 33 23 15 38 4 8 20 25 18 14 17 20 20 20 20 13 23 29 31 28 25 22 31 38 42 44 49 52 48 50 47 37 38 56 47
6 7 8 9 16 7 5 12 34 29 24 26 12 20 31 26 22 18 17 15 12 19 22 18 18 26 27 27 27 22 23 30 37 39 38 43 40 43 42 47 50 47 49 52
6 10 6 15 11 1 22 41 38 29 36 46 39 36 31 27 24 20 14 12 11 15 19 14 15 25 24 25 22 21 23 27 33 33 35 38 46 41 42 44 49 54 57 57
3 8 13 38 49 45 41 43 38 34 34 37 40 35 33 29 24 18 13 12 7 13 12 12 15 20 26 25 17 20 20 20 26 29 30 29 38 40 35 38 36 48 51 55
10 10 27 43 45 41 38 37 34 30 31 36 39 36 32 26 21 15 13 10 9 12 10 2 9 18 25 27 15 19 19 19 19 22 23 27 37 37 33 41 45 42 42 44
13 26 38 36 36 39 37 34 33 31 32 36 40 36 31 27 20 17 16 7 7 7 9 5 7 19 21 26 13 8 11 17 13 16 21 26 29 29 26 30 39 36 40 40
9 52 19 45 39 36 38 35 33 37 35 35 39 34 27 24 19 16 11 5 7 4 12 7 5 14 18 26 16 12 10 13 9 13 16 17 26 23 21 20 31 24 33 36
21 56 49 51 41 36 36 35 33 31 33 35 33 31 28 20 16 14 7 4 7 11 12 10 12 20 17 16 13 16 19 14 12 12 9 18 24 25 24 21 19 28 35 34
61 70 53 49 46 36 34 35 32 30 33 31 39 29 22 17 12 11 5 4 8 7 11 7 14 14 15 9 10 12 12 12 13 15 16 17 20 24 21 22 22 21 25 26
54 45 55 50 44 40 37 36 34 32 32 33 24 30 22 15 12 12 6 9 5 10 9 8 13 15 8 9 12 12 15 13 10 13 13 17 19 22 25 26 25 21 23 30
48 51 51 46 41 35 38 34 33 31 26 30 24 23 18 13 10 6 5 5 1 3 6 7 8 12 9 3 7 6 13 23 17 14 17 16 19 25 28 27 25 25 24 31
60 51 46 43 41 38 36 31 34 29 25 22 26 19 19 14 18 6 2 2 10 12 16 18 21 13 12 15 4 10 19 6 11 13 14 16 16 18 20 23 30 32 32 37
41 43 42 40 40 36 32 29 30 29 29 26 27 21 18 16 12 3 3 1 9 14 25 25 23 11 4 15 11 8 8 8 8 8 12 15 14 16 13 14 20 25 31 32
39 41 37 35 34 33 32 31 31 29 31 28 19 22 18 14 11 10 12 11 5 14 19 20 18 28 6 13 7 11 10 11 13 13 14 16 19 20 23 22 23 26 28 31
43 38 37 35 32 33 32 31 33 25 22 26 24 22 17 17 14 12 5 9 7 15 12 13 15 14 13 5 1 5 12 16 12 14 15 23 21 21 24 29 29 30 30 26
46 42 38 35 30 29 30 30 36 31 25 22 21 20 17 15 13 9 7 8 9 16 5 11 10 26 20 11 4 16 6 6 19 19 20 25 15 18 23 27 26 21 18 18
39 38 37 38 37 36 37 38 33 35 27 22 23 18 19 15 12 7 4 3 1 6 7 7 13 28 12 6 6 2 3 19 16 19 17 13 13 20 23 24 20 20 18 19
35 38 35 32 32 28 27 36 35 27 28 23 22 19 17 15 12 7 13 5 7 11 17 13 17 21 2 3 9 16 20 24 6 8 12 18 32 34 21 20 20 19 25 16
36 29 28 28 23 19 26 24 26 24 24 27 23 22 21 18 12 6 2 5 3 14 15 10 22 17 8 17 25 25 16 5 8 14 25 38 32 26 21 16 20 20 21 14
35 35 29 25 20 23 25 22 25 22 24 25 23 23 17 14 8 9 9 6 8 15 13 13 16 18 5 20 16 21 22 21 25 30 33 37 38 30 21 19 20 21 20 15
40 31 21 16 18 24 25 24 22 22 19 23 26 25 16 16 15 6 7 10 12 6 9 10 11 14 8 24 15 14 21 25 27 29 33 40 37 26 18 19 21 22 20 19
30 24 28 24 17 22 26 25 23 22 23 24 24 16 11 13 11 12 11 11 8 2 7 7 8 8 7 16 12 14 18 20 26 32 36 40 44 28 14 17 21 21 19 11
Wind_Direction_850mb
300 90 78 78 79 68 60 45 107 110 96 101 90 82 79 75 65 53 48 52 53 45 46 36 41 45 36 26 23 18 41 45 39 35 30 34 30 29 30 35 35 40 40 42
74 82 92 87 79 85 61 53 98 104 95 114 89 82 73 71 66 63 61 57 51 56 43 38 51 49 30 24 22 37 50 48 38 38 39 37 35 31 29 33 37 39 41 40
189 114 107 66 66 99 86 64 103 94 121 88 80 80 80 78 78 81 75 55 63 58 48 58 52 41 31 23 36 44 49 42 32 32 35 28 24 26 31 35 37 36 39 37
220 109 145 163 81 106 100 77 90 88 85 110 107 94 87 83 95 99 82 70 60 55 66 62 50 34 21 30 42 43 47 44 30 34 39 39 31 29 39 42 44 45 44 49
127 108 120 121 123 129 122 74 68 96 89 125 117 96 76 87 101 106 94 75 64 48 70 52 48 16 12 40 36 42 35 39 42 37 33 30 33 38 45 48 49 57 52 52
355 143 161 128 101 119 111 107 89 99 91 88 172 91 129 110 112 109 94 97 101 62 50 39 36 9 25 39 30 34 58 55 38 37 40 39 37 42 40 42 49 45 54 56
268 101 54 111 112 161 180 192 110 106 100 102 89 122 130 134 117 102 88 96 81 67 61 52 6 360 44 36 37 41 56 66 47 38 37 35 32 34 49 47 47 61 57 50
305 97 144 350 77 228 138 123 119 108 122 116 120 126 128 126 121 115 105 119 97 58 59 39 0 15 39 40 33 52 73 58 48 43 41 38 36 49 57 56 54 54 57 52
39 145 87 85 109 122 127 116 123 118 124 126 130 129 133 126 123 113 105 117 78 53 41 16 10 24 20 32 34 71 69 52 55 46 44 42 37 45 48 47 50 52 47 43
95 111 103 102 108 117 123 120 123 128 130 135 134 136 133 129 127 118 120 105 68 63 42 96 351 18 22 19 38 83 64 54 49 40 36 51 27 38 46 47 48 50 47 44
88 127 124 120 123 123 122 124 128 131 131 136 136 136 133 133 126 129 117 104 38 45 24 36 343 8 30 5 25 67 59 56 59 34 50 27 14 22 29 45 41 46 48 39
199 165 152 145 141 139 135 132 132 132 130 137 142 137 139 140 141 139 127 89 36 6 0 22 336 10 19 14 64 64 25 37 48 18 35 24 359 9 6 9 39 43 34 27
150 163 146 142 144 145 140 144 141 138 138 149 150 140 141 143 129 145 145 62 29 40 16 4 345 354 25 30 49 54 31 32 42 13 11 3 18 18 21 35 54 36 36 28
142 138 130 145 137 142 144 146 143 144 148 134 143 139 144 141 144 141 123 25 23 10 340 346 350 4 4 12 70 19 28 40 40 31 27 19 21 14 9 7 25 29 28 19
135 148 143 144 141 145 149 144 141 140 147 161 161 156 151 145 158 156 79 25 40 24 10 335 328 353 16 72 64 29 36 40 52 35 15 18 16 353 9 16 23 13 15 19
139 139 145 147 146 148 150 152 150 149 154 166 168 158 151 164 157 150 104 77 97 305 284 302 320 340 354 17 102 20 24 45 46 30 28 19 3 3 15 20 21 11 2 360
139 142 148 148 151 156 162 166 162 155 160 165 181 167 152 169 149 165 354 293 315 333 339 320 292 300 315 158 153 332 264 17 38 15 360 0 1 19 10 359 357 352 0 1
160 160 162 159 157 160 163 168 161 161 163 147 145 151 164 166 189 156 116 284 345 347 345 8 39 27 270 174 154 358 185 257 7 348 342 339 343 352 354 10 2 5 357 354
160 159 161 160 160 164 167 168 159 168 180 184 167 165 163 177 162 149 156 145 72 330 336 351 29 34 46 141 97 71 149 313 327 328 322 330 325 328 326 327 333 337 342 348
152 155 157 155 163 170 167 172 164 163 143 157 171 161 173 173 182 181 220 298 311 3 46 43 24 25 50 166 273 7 316 299 346 341 330 316 316 323 326 325 327 331 328 338
151 154 155 154 158 171 176 173 173 165 167 179 188 173 179 188 193 218 248 312 352 0 357 350 351 350 301 285 249 45 36 324 325 312 334 352 341 331 335 341 333 336 338 343
157 159 158 162 167 169 175 175 179 179 172 169 172 175 180 195 205 208 187 320 329 10 346 323 331 336 343 146 182 23 350 303 335 306 315 341 323 319 322 334 341 344 343 344
164 165 169 173 183 186 189 188 183 176 179 168 174 186 181 200 211 218 203 237 266 313 313 327 346 353 119 93 345 333 304 262 328 248 293 318 322 326 333 336 337 341 345 338
167 173 166 174 181 173 159 158 167 171 170 171 182 180 185 192 191 189 223 11 321 355 339 360 9 12 91 17 19 23 17 54 241 292 313 325 327 327 333 328 314 326 336 330
166 173 179 179 173 154 159 162 165 172 177 181 186 185 180 165 209 180 163 319 336 350 4 13 17 28 17 12 341 350 347 336 327 329 331 332 331 322 314 318 318 329 335 328
176 183 184 173 172 170 162 162 159 165 168 174 180 180 190 199 188 216 273 291 323 345 357 11 354 359 12 351 349 8 338 334 329 329 331 334 335 325 321 318 312 317 326 322
172 168 162 175 188 170 162 165 165 163 164 164 166 179 192 178 201 237 244 288 318 285 316 331 342 27 17 5 1 336 328 325 318 316 322 335 341 336 341 321 315 326 329 318